User: anonymous   Login
Location: Lugrin
(46.4033°N, 6.6674°E)
Time: 14:37:04
(UTC+00:00)
Language:

SJ 16-02 - Orbit

View from above orbital plane
View from above orbital plane
View from above satellite
View from above satellite

Ground track
Ground track

The orbit data is extracted from the following two-line orbital elements,

1 41634U 16043A   20334.18870690  .00000198  00000-0  25974-4 0  9992
2 41634  75.0015 124.6769 0008275 259.7952 100.2305 14.85734942239703
Epoch (UTC): 29 November 2020 04:31:44
Eccentricity: 0.0008275
inclination: 75.0015°
perigee height: 605 km
apogee height: 617 km
right ascension of ascending node: 124.6769°
argument of perigee: 259.7952°
revolutions per day: 14.85734942
mean anomaly at epoch: 100.2305°
orbit number at epoch: 23970

The dashed part of the orbit path shows where the satellite is in the earth's shadow,  

DLR